loading
DOY 172 | 2024-06-20T00:19:11Z

THOR ABLESTAR DEB, 350

Orbit data source: Space-Track

THOR ABLESTAR DEB, 350 is space debris in LEO originally from a launch on Thu, 29 Jun 1961 UTC launched from the Air Force Eastern Test Range (AFETR). Debris objects in space refer to the collection of defunct objects orbiting the Earth. Examples of debris include non-operational satellites, rocket bodies, and fragments generated from explosions, collisions, or faulty payload assembly.

Loading next visibility...
Loading greatness...
THOR ABLESTAR DEB details
NORAD ID350
COSPAR ID
1961-015DQ
Orbit
LEO
Last TLE update10 hours ago
Origin
Flag of USUSAF SSD (US)
ManufacturerUnknown
BusUnknown
MotorUnknown
MassWet unknown, Dry mass unknown
Launch date (UTC)
1961-06-29 (63 years ago)
Launch vehicleUnknown
Launch site
Air Force Eastern Test Range (AFETR)
Object type
Payload
Rocket body
Debris
Radar Cross SectionMedium (>0.1 m² and <1 m²)
Predictive object data (real-time)
Latitude44.01504°
Longitude-161.04183°
Altitude795.147 km
Speed7.476 km/s
Apparent Right ascension22h 08m 28s
Apparent Declination5° 15' 26"
Sunlit
Object is in daylight
Predictive observer data (real-time)
Local Sidereal Time11:13:34
Azimuth22.204° NNE
Elevation-42.405°
Doppler factor1
Orbital elements
Apogee911.157 km
Perigee725.124 km
Semi-major axis7,196.277 km
Eccentricity0.0129256
Inclination66.9132°
RAAN293.6298°
Arg. of periapsis337.6126°
True anomaly22.49742°
Mean anomaly21.9357°
Mean motion3.55534 °/min
BSTAR0.00016266
Period101.26 mins
Definitive object data (Epoch: 2024-06-19T13:57:51.75Z)
Latitude-0.00002°
Longitude175.87798°
Altitude735.759 km
Speed7.532 km/s
True Right ascension19h 34m 31s
True Declination0° 00' 00"
Sunlit
Object was in full shadow at TLE epoch
TLE from 10 hours ago
0 THOR ABLESTAR DEB
1 00350U 61015DQ  24171.58184896  .00000307  00000-0  16266-3 0  9999
2 00350  66.9132 293.6298 0129256 337.6126  21.9357 14.21648183259482
Epoch: 2024-06-19T13:57Z
No data available

THOR ABLESTAR DEB Visibility forecast

Observer location: 39.9160978°, -105.1181434, 0m alt.

THOR ABLESTAR DEB is not visible in the next 10 days
Span
Click to sort rows by Start time (UTC) header in descending order
Start Az.
Max El. time (UTC)
Max El. Az.
Max El.
End time (UTC)
End Az.